This is the latest recevied weather packets stored in our database for station/object W3AJR. If no packets are shown the sender has not sent any weather packets the latest 10 day(s).
| Time | Temp. | Humidity | Pressure | Rain* | Wind** | Luminosity | Snow |
|---|---|---|---|---|---|---|---|
| 1777734179 | 11.67° C | 55% | 1014.5 hPa | 0 mm | - | 302 W/m² | - |
| 1777733875 | 11.67° C | 57% | 1014.2 hPa | 0 mm | - | 339 W/m² | - |
| 1777733572 | 11.67° C | 57% | 1014.3 hPa | 0 mm | - | 544 W/m² | - |
| 1777733268 | 11.67° C | 57% | 1014.4 hPa | 0 mm | - | 284 W/m² | - |
| 1777732966 | 11.67° C | 57% | 1014.5 hPa | 0 mm | - | 266 W/m² | - |
| 1777732661 | 11.67° C | 58% | 1014.6 hPa | 0 mm | - | 296 W/m² | - |
| 1777732359 | 11.67° C | 59% | 1014.6 hPa | 0 mm | - | 288 W/m² | - |
| 1777732057 | 11.67° C | 59% | 1014.4 hPa | 0 mm | - | 241 W/m² | - |
| 1777731753 | 11.11° C | 59% | 1014.5 hPa | 0 mm | - | 245 W/m² | - |
| 1777731450 | 11.11° C | 60% | 1014.2 hPa | 0 mm | - | 247 W/m² | - |
| 1777731148 | 11.11° C | 60% | 1014.4 hPa | 0 mm | - | 231 W/m² | - |
| 1777730846 | 11.11° C | 59% | 1014.1 hPa | 0 mm | - | 225 W/m² | - |
| 1777730543 | 11.11° C | 59% | 1014.3 hPa | 0 mm | - | 233 W/m² | - |
| 1777730239 | 11.11° C | 61% | 1014.4 hPa | 0 mm | - | 235 W/m² | - |
| 1777729936 | 10.56° C | 62% | 1014.1 hPa | 0 mm | - | 217 W/m² | - |
| 1777729632 | 10.56° C | 62% | 1014.2 hPa | 0 mm | - | 166 W/m² | - |
| 1777729329 | 10.56° C | 61% | 1014.2 hPa | 0 mm | - | 145 W/m² | - |
| 1777729025 | 10.56° C | 62% | 1014 hPa | 0 mm | - | 136 W/m² | - |
| 1777728722 | 10.56° C | 62% | 1014.2 hPa | 0 mm | - | 138 W/m² | - |
| 1777728419 | 10° C | 64% | 1014.3 hPa | 0 mm | - | 128 W/m² | - |
| 1777728116 | 10° C | 63% | 1014.3 hPa | 0 mm | - | 145 W/m² | - |
| 1777727813 | 10° C | 64% | 1013.9 hPa | 0 mm | - | 167 W/m² | - |
| 1777727510 | 10° C | 66% | 1014.3 hPa | 0 mm | - | 167 W/m² | - |
| 1777727208 | 10° C | 67% | 1014 hPa | 0 mm | - | 150 W/m² | - |
| 1777726905 | 9.44° C | 66% | 1014.1 hPa | 0 mm | - | 144 W/m² | - |
* Rain latest hour (hover to see other rain measurements)
** Current wind speed in m/s (hover to see current wind gust speed)